Weather History for Tel Aviv, Israel

Change the Weather History Date:

Tuesday, December 24, 2013

  Actual Average Record
Temperature  
Mean Temperature 56 °F -  
Max Temperature 70 °F 62 °F 70 °F (2013)
Min Temperature 42 °F 48 °F 42 °F (2006)
Degree Days  
Heating Degree Days 9    
Growing Degree Days 6 (Base 50)    
Moisture  
Dew Point 32 °F    
Average Humidity 42    
Maximum Humidity 76    
Minimum Humidity 13    
Precipitation  
Precipitation 0.00 in - - ()
Sea Level Pressure  
Sea Level Pressure 30.27 in    
Wind  
Wind Speed 6 mph ()    
Max Wind Speed 17 mph    
Max Gust Speed -    
Visibility 6.0 miles    
Events      
Averages and records for this station are not official NWS values.
T = Trace of Precipitation, MM = Missing Value Source: Averaged Metar Reports

Daily Weather History Graph

Daily Weather History Graph

Search for Another Location

Airport:

Trip Planner

Search our weather history database for the weather conditions in past years. The results will help you decide how hot, cold, wet, or windy it might be!

Date:

Astronomy

Dec. 24, 2013 Rise Set
Actual Time 6:38 AM IST 4:41 PM IST
Civil Twilight 6:11 AM IST 5:08 PM IST
Nautical Twilight 5:40 AM IST 5:39 PM IST
Astronomical Twilight 5:10 AM IST 6:09 PM IST
Moon 11:06 PM IST (12/24) 10:43 AM IST (12/24)
Length of Visible Light 10h 57m
Length of Day
10h 03m
Waning Gibbous, 61% of the Moon is Illuminated
Dec 24
Waning Gibbous
Dec 25
Last Quarter
Jan 1
New
Jan 8
First Quarter
Jan 16
Full

Hourly Weather History & Observations

Time (IST) Temp. Windchill Dew Point Humidity Pressure Visibility Wind Dir Wind Speed Gust Speed Precip Events Conditions
12:20 AM 46.4 °F 44.3 °F 35.6 °F 66% 30.27 in - ENE 4.6 mph - N/A   Clear
12:50 AM 46.4 °F 45.2 °F 33.8 °F 62% 30.27 in - Variable 3.5 mph - N/A   Clear
1:20 AM 44.6 °F 42.2 °F 35.6 °F 71% 30.27 in - ENE 4.6 mph - N/A   Clear
1:50 AM 46.4 °F 44.3 °F 32.0 °F 57% 30.27 in - ENE 4.6 mph - N/A   Clear
2:00 AM 46 °F - 33 °F 50% 30.30 in 6 mi ENE 4.6 mph - -  
2:20 AM 44.6 °F 41.4 °F 35.6 °F 71% 30.27 in - ENE 5.8 mph - N/A   Clear
2:50 AM 44.6 °F 43.1 °F 33.8 °F 66% 30.27 in - Variable 3.5 mph - N/A   Clear
3:20 AM 48.2 °F - 32.0 °F 54% 30.27 in - ENE 4.6 mph - N/A   Clear
3:50 AM 44.6 °F - 35.6 °F 71% 30.27 in - Variable 1.2 mph - N/A   Clear
4:20 AM 42.8 °F - 35.6 °F 76% 30.27 in - Variable 2.3 mph - N/A   Clear
4:50 AM 42.8 °F - 33.8 °F 70% 30.27 in - Variable 2.3 mph - N/A   Clear
5:00 AM 42 °F - 33 °F 60% 30.28 in 6 mi 3.5 mph - -  
5:20 AM 42.8 °F 40.1 °F 33.8 °F 70% 30.27 in - East 4.6 mph - N/A   Clear
5:50 AM 44.6 °F 42.2 °F 32.0 °F 61% 30.27 in - East 4.6 mph - N/A   Clear
6:20 AM 44.6 °F 43.1 °F 32.0 °F 61% 30.30 in - Variable 3.5 mph - N/A   Clear
6:50 AM 44.6 °F 40.2 °F 32.0 °F 61% 30.30 in - NE 8.1 mph - N/A   Clear
7:20 AM 46.4 °F 41.9 °F 33.8 °F 62% 30.30 in - NE 9.2 mph - N/A   Clear
7:50 AM 50.0 °F - 33.8 °F 54% 30.30 in - East 6.9 mph - N/A   Clear
8:00 AM 52 °F - 35 °F 39% 30.34 in 6 mi ENE 6.9 mph - -  
8:20 AM 53.6 °F - 33.8 °F 47% 30.33 in - ENE 5.8 mph - N/A   Clear
8:50 AM 57.2 °F - 35.6 °F 44% 30.33 in - NE 10.4 mph - N/A   Clear
9:20 AM 59.0 °F - 39.2 °F 48% 30.33 in - NE 8.1 mph - N/A   Clear
9:50 AM 62.6 °F - 35.6 °F 37% 30.33 in - NE 10.4 mph - N/A   Clear
10:20 AM 66.2 °F - 35.6 °F 32% 30.33 in - ENE 9.2 mph - N/A   Clear
10:50 AM 68.0 °F - 30.2 °F 24% 30.30 in - East 12.7 mph - N/A   Clear
11:00 AM 67 °F - 30 °F 15% 30.32 in 6 mi East 9.2 mph - -  
11:20 AM 68.0 °F - 30.2 °F 24% 30.30 in - ESE 15.0 mph - N/A   Clear
11:50 AM 68.0 °F - 28.4 °F 23% 30.27 in - ESE 15.0 mph - N/A   Clear
12:20 PM 69.8 °F - 30.2 °F 23% 30.27 in - East 13.8 mph - N/A   Clear
12:50 PM 69.8 °F - 28.4 °F 21% 30.27 in - East 12.7 mph - N/A   Clear
1:20 PM 69.8 °F - 28.4 °F 21% 30.24 in - ESE 17.3 mph - N/A   Clear
1:50 PM 69.8 °F - 28.4 °F 21% 30.24 in - ESE 16.1 mph - N/A   Clear
2:00 PM 70 °F - 30 °F 13% 30.26 in 6 mi ESE 15.0 mph - -  
2:20 PM 69.8 °F - 30.2 °F 23% 30.24 in - ESE 16.1 mph - N/A   Clear
2:50 PM 69.8 °F - 30.2 °F 23% 30.24 in - East 162.3 mph - N/A   Clear
3:20 PM 69.8 °F - 30.2 °F 23% 30.24 in - SE 10.4 mph - N/A   Clear
3:50 PM 69.8 °F - 30.2 °F 23% 30.24 in - ESE 6.9 mph - N/A   Clear
4:20 PM 68.0 °F - 30.2 °F 24% 30.24 in - East 5.8 mph - N/A   Clear
4:50 PM 66.2 °F - 32.0 °F 28% 30.24 in - Variable 3.5 mph - N/A   Clear
5:00 PM 66 °F - 32 °F 17% 30.27 in 6 mi 3.5 mph - -  
5:20 PM 62.6 °F - 32.0 °F 32% 30.24 in - NNE 8.1 mph - N/A   Clear
5:50 PM 59.0 °F - 32.0 °F 36% 30.24 in - NE 6.9 mph - N/A   Clear
6:20 PM 57.2 °F - 32.0 °F 38% 30.24 in - East 4.6 mph - N/A   Clear
6:50 PM 55.4 °F - 32.0 °F 41% 30.24 in - NE 8.1 mph - N/A   Clear
7:20 PM 53.6 °F - 32.0 °F 44% 30.24 in - NE 10.4 mph - N/A   Clear
7:50 PM 55.4 °F - 28.4 °F 36% 30.24 in - ENE 10.4 mph - N/A   Clear
8:00 PM 56 °F - 31 °F 26% 30.21 in 6 mi ENE 8.1 mph - -  
8:20 PM 55.4 °F - 30.2 °F 38% 30.24 in - NE 8.1 mph - N/A   Clear
8:50 PM 55.4 °F - 28.4 °F 36% 30.24 in - NNE 10.4 mph - N/A   Clear
9:20 PM 55.4 °F - 28.4 °F 36% 30.24 in - NE 11.5 mph - N/A   Clear
9:50 PM 57.2 °F - 26.6 °F 31% 30.24 in - NE 10.4 mph - N/A   Clear
10:20 PM 55.4 °F - 28.4 °F 36% 30.24 in - NE 9.2 mph - N/A   Clear
10:50 PM 51.8 °F - 28.4 °F 41% 30.24 in - ENE 11.5 mph - N/A   Clear
11:00 PM 51 °F - 31 °F 33% 30.26 in 6 mi ENE 11.5 mph - -  
11:20 PM 50.0 °F - 28.4 °F 43% 30.24 in - NE 8.1 mph - N/A   Clear